Starlink 32273

operational
NORAD ID: 61956 Int'l Des: 2024-209 Owner: SPXS Country: US Constellation: starlink
LEOCIRCULAR

About Starlink 32273

Description loading...

Live Position

Loading 3D Globe...

Upcoming Passes

Altitude History

Altitude vs Time

uPlot chart will show altitude changes over time

Two-Line Element Set

1 61956U 24209T 25352.46885597 .00030646 00000-0 10422-2 0 9993
2 61956 53.1588 159.5199 0001869 88.0838 272.0377 15.30212497 62467
Epoch: Dec 18, 2025 • Age: 15 hours

Current Status

Altitude 475.3 km
Velocity 7.63 km/s
Sub-Earth Point 5.14°N, 146.86°W
Launch Date Nov 14, 2024
Age 1 years
Type internet

Technical Details

Classification Payload
Mass 730.00 kg
Dry Mass 700.00 kg
Total Mass 730.00 kg
Length 0.30 m
Diameter 4.10 m
Span 29.00 m
Shape Box + pan
Manufacturer SPXS
Bus Type Starlink V2M
Phase Status In Orbit
Owner/State SPXS/US

Large Constellations

Loading constellations...